Location: Christianberg
(48.9086°N, 14.0209°E)
Time: 22:07:58
(UTC+00:00)

Cosmos 1606 - Pass Details

Date: 20 June 2021
Orbit: 501 x 527 km, 82.5° (Epoch: 04 August)

Event Time Altitude Azimuth Distance (km) Brightness Sun altitude
Rises 00:56:32 0° 345° (NNW) 2,657 7.1 -13.5°
Reaches altitude 10° 00:58:44 10° 340° (NNW) 1,759 6.0 -13.4°
Maximum altitude 01:02:27 48° 266° (W) 683 3.1 -13.1°
Enters shadow 01:04:40 21° 200° (SSW) 1,179 3.9 -12.9°
